Louisville Bowman, KY

9:26 PM EDT on March 30, 2017 (GMT -0400)
Bowman

Weather History for KLOU - June, 2014

Change the Weather History Date:

Wednesday, June 4, 2014

  Actual Average Record
Temperature  
Mean Temperature 81 °F 72 °F  
Max Temperature 88 °F 82 °F 95 °F (2011)
Min Temperature 73 °F 62 °F 46 °F (1956)
Degree Days  
Heating Degree Days 0 0  
Month to date heating degree days 0 2  
Since 1 June heating degree days 0 2  
Since 1 July heating degree days 4706 4267  
Cooling Degree Days 16 8  
Month to date cooling degree days 58 29  
Year to date cooling degree days 313 176  
Since 1 June cooling degree days 58 29  
Growing Degree Days 30 (Base 50)    
Moisture  
Dew Point 70 °F    
Average Humidity 71    
Maximum Humidity 87    
Minimum Humidity 55    
Precipitation  
Precipitation 0.01 in 0.17 in 1.45 in (1993)
Month to date precipitation 0.10 0.69  
Year to date precipitation 19.64 20.61  
Sea Level Pressure  
Sea Level Pressure 29.81 in    
Wind  
Wind Speed 9 mph (SW)    
Max Wind Speed 21 mph    
Max Gust Speed 30 mph    
Visibility 9 miles    
Events      
T = Trace of Precipitation, MM = Missing Value Source: NWS Daily Summary

Daily Weather History Graph

Daily Weather History Graph

Search for Another Location

Airport or City:

Trip Planner

Search our weather history database for the weather conditions in past years. The results will help you decide how hot, cold, wet, or windy it might be!

Date:

Astronomy

Jun. 04, 2014 Rise Set
Actual Time 6:20 AM EDT 9:02 PM EDT
Civil Twilight 5:48 AM EDT 9:33 PM EDT
Nautical Twilight 5:10 AM EDT 10:12 PM EDT
Astronomical Twilight 4:26 AM EDT 10:56 PM EDT
Moon 12:34 PM EDT (6/4) 1:04 AM EDT (6/4)
Length of Visible Light 15h 44m
Length of Day
14h 42m
Waxing Crescent, 39% of the Moon is Illuminated
Jun 4
Waxing Crescent
Jun 5
First Quarter
Jun 13
Full
Jun 19
Last Quarter
Jun 27
New

Hourly Weather History & Observations

Time (EDT) Temp. Heat Index Dew Point Humidity Pressure Visibility Wind Dir Wind Speed Gust Speed Precip Events Conditions
12:53 AM 78.1 °F - 70.0 °F 76% 29.93 in 9.0 mi Calm Calm - N/A   Mostly Cloudy
1:53 AM 77.0 °F - 69.1 °F 76% 29.92 in 9.0 mi South 3.5 mph - N/A   Clear
2:53 AM 75.9 °F - 69.1 °F 79% 29.91 in 9.0 mi Calm Calm - N/A   Scattered Clouds
3:53 AM 75.0 °F - 70.0 °F 84% 29.91 in 6.0 mi Calm Calm - N/A   Haze
4:53 AM 73.9 °F - 70.0 °F 87% 29.90 in 6.0 mi South 3.5 mph - N/A   Partly Cloudy
5:53 AM 73.9 °F - 69.1 °F 85% 29.89 in 7.0 mi SSE 3.5 mph - N/A   Clear
6:53 AM 73.9 °F - 69.1 °F 85% 29.88 in 6.0 mi South 5.8 mph - N/A   Haze
7:53 AM 75.9 °F - 69.1 °F 79% 29.88 in 8.0 mi SSE 5.8 mph - N/A   Clear
8:53 AM 79.0 °F - 70.0 °F 74% 29.88 in 10.0 mi SSW 4.6 mph - N/A   Partly Cloudy
9:53 AM 81.0 °F 84.9 °F 71.1 °F 72% 29.88 in 10.0 mi SW 12.7 mph 18.4 mph N/A   Partly Cloudy
10:53 AM 82.4 °F 87.2 °F 71.6 °F 70% 29.87 in 10.0 mi SSW 10.4 mph 20.7 mph N/A   Mostly Cloudy
11:16 AM 81.0 °F 84.4 °F 70.0 °F 69% 29.85 in 10.0 mi SW 12.7 mph 20.7 mph N/A   Mostly Cloudy
11:53 AM 81.0 °F 84.4 °F 70.0 °F 69% 29.79 in 10.0 mi SSW 11.5 mph 21.9 mph N/A   Mostly Cloudy
12:36 PM 82.0 °F 85.9 °F 70.0 °F 67% 29.75 in 10.0 mi South 16.1 mph 23.0 mph N/A   Scattered Clouds
12:53 PM 82.0 °F 85.9 °F 70.0 °F 67% 29.74 in 10.0 mi South 11.5 mph 25.3 mph N/A   Clear
1:53 PM 84.0 °F 88.4 °F 70.0 °F 63% 29.77 in 10.0 mi WSW 13.8 mph 24.2 mph N/A   Scattered Clouds
2:53 PM 86.0 °F 90.1 °F 69.1 °F 57% 29.76 in 10.0 mi WSW 20.7 mph 29.9 mph N/A   Mostly Cloudy
3:53 PM 87.1 °F 91.3 °F 69.1 °F 55% 29.75 in 10.0 mi WSW 13.8 mph 25.3 mph N/A   Mostly Cloudy
4:53 PM 86.0 °F 92.2 °F 72.0 °F 63% 29.73 in 10.0 mi WSW 12.7 mph 18.4 mph 0.01 in   Scattered Clouds
5:53 PM 84.9 °F 89.4 °F 70.0 °F 61% 29.72 in 10.0 mi WSW 15.0 mph - N/A   Partly Cloudy
6:53 PM 84.0 °F 88.4 °F 70.0 °F 63% 29.72 in 10.0 mi WSW 9.2 mph 20.7 mph N/A   Clear
7:53 PM 82.9 °F 87.0 °F 70.0 °F 65% 29.71 in 10.0 mi WSW 10.4 mph 18.4 mph N/A   Clear
8:53 PM 82.0 °F 85.5 °F 69.1 °F 65% 29.73 in 10.0 mi West 12.7 mph - N/A   Overcast
9:21 PM 81.0 °F 84.1 °F 69.1 °F 67% 29.76 in 10.0 mi West 12.7 mph - N/A   Overcast
9:49 PM 80.6 °F 83.9 °F 69.8 °F 70% 29.76 in 10.0 mi WNW 8.1 mph - N/A   Overcast
9:53 PM 81.0 °F 84.1 °F 69.1 °F 67% 29.75 in 10.0 mi West 10.4 mph - N/A   Overcast
10:53 PM 80.6 °F 82.7 °F 66.2 °F 61% 29.77 in 10.0 mi NW 6.9 mph - N/A   Mostly Cloudy
11:53 PM 79.0 °F - 66.0 °F 64% 29.77 in 10.0 mi Calm Calm - N/A   Overcast